Location: Newark
(49.8900°N, 17.8822°E)
Time: 19:48:16
(UTC+00:00)

OTV 5 (USA 277) - Visible Passes

Search period start: 24 August 2019 00:00
Search period end: 03 September 2019 00:00
Orbit: 305 x 329 km, 54.5° (Epoch: 20 August)

Date Brightness Start Highest point End Pass type
(mag) Time Alt. Az. Time Alt. Az. Time Alt. Az.
24 Aug ? 19:31:22 10° SW 19:33:12 32° S 19:33:12 32° S visible
25 Aug ? 19:45:46 10° WSW 19:48:20 79° WSW 19:48:20 79° WSW visible
26 Aug ? 18:26:27 10° SSW 18:28:51 29° SE 18:31:15 10° E visible
26 Aug ? 20:00:27 10° W 20:02:59 47° NNW 20:02:59 47° NNW visible
27 Aug ? 18:40:37 10° SW 18:43:19 64° SSE 18:45:59 10° ENE visible
27 Aug ? 20:15:16 10° W 20:17:20 31° NNW 20:17:20 31° NNW visible
28 Aug ? 18:55:11 10° WSW 18:57:52 63° NNW 19:00:32 10° ENE visible
28 Aug ? 20:30:06 10° WNW 20:31:29 21° NW 20:31:29 21° NW visible
29 Aug ? 19:09:57 10° W 19:12:31 39° NNW 19:14:38 13° NE visible
29 Aug ? 20:44:50 10° WNW 20:45:30 15° NW 20:45:30 15° NW visible
30 Aug ? 19:24:47 10° WNW 19:27:14 30° N 19:28:34 19° NE visible
31 Aug ? 18:04:38 10° W 18:07:18 48° NNW 18:09:56 10° ENE visible
31 Aug ? 19:39:35 10° WNW 19:41:59 28° N 19:42:28 26° NNE visible
01 Sep ? 18:19:28 10° W 18:21:58 33° NNW 18:24:28 10° ENE visible
01 Sep ? 19:54:15 10° WNW 19:56:19 29° N 19:56:19 29° N visible
02 Sep ? 18:34:17 10° WNW 18:36:43 28° N 18:39:08 10° ENE visible
02 Sep ? 20:08:50 10° WNW 20:10:09 23° NW 20:10:09 23° NW visible
